Weather History for KBCK - December, 2013

Change the Weather History Date:

Monday, December 23, 2013

  Actual Average (KLSE) Record (KLSE)
Temperature  
Mean Temperature 3 °F 19 °F  
Max Temperature 19 °F 27 °F 59 °F (1877)
Min Temperature -14 °F 12 °F -28 °F (1872)
Degree Days  
Heating Degree Days 62 46  
Month to date heating degree days 972  
Since 1 July heating degree days 2472  
Cooling Degree Days 0 0  
Month to date cooling degree days 0  
Year to date cooling degree days 782  
Moisture  
Dew Point -1 °F    
Average Humidity 79    
Maximum Humidity 96    
Minimum Humidity 68    
Precipitation  
Precipitation 0.00 in 0.04 in 0.41 in (1941)
Month to date precipitation 1.08  
Year to date precipitation 32.78  
Snow  
Snow 0.00 in 0.40 in 7.00 in (2007)
Month to date snowfall 8.8  
Since 1 July snowfall 13.1  
Snow Depth -    
Sea Level Pressure  
Sea Level Pressure 30.31 in    
Wind  
Wind Speed 6 mph (West)    
Max Wind Speed 10 mph    
Max Gust Speed 16 mph    
Visibility 3 miles    
Events Snow    
T = Trace of Precipitation, MM = Missing Value Source: NWS Daily Summary

Daily Weather History Graph

Daily Weather History Graph

Search for Another Location

Airport or City:

Trip Planner

Search our weather history database for the weather conditions in past years. The results will help you decide how hot, cold, wet, or windy it might be!

Date:

Astronomy

Dec. 23, 2013 Rise Set
Actual Time 7:36 AM CST 4:28 PM CST
Civil Twilight 7:03 AM CST 5:01 PM CST
Nautical Twilight 6:26 AM CST 5:38 PM CST
Astronomical Twilight 5:51 AM CST 6:13 PM CST
Moon 10:51 PM CST (12/23) 10:50 AM CST (12/23)
Length of Visible Light 9h 58m
Length of Day
8h 51m
Waning Gibbous, 68% of the Moon is Illuminated
Dec 23
Waning Gibbous
Dec 25
Last Quarter
Jan 1
New
Jan 7
First Quarter
Jan 15
Full

Hourly Weather History & Observations

Time (CST) Temp. Windchill Dew Point Humidity Pressure Visibility Wind Dir Wind Speed Gust Speed Precip Events Conditions
12:15 AM 19.2 °F - 18.3 °F 96% 30.13 in 0.8 mi Calm Calm - N/A Snow Light Snow
12:35 AM 18.9 °F 8.8 °F 17.2 °F 93% 30.13 in 1.0 mi WNW 8.1 mph - N/A Snow Light Snow
12:55 AM 18.3 °F 7.3 °F 17.4 °F 96% 30.14 in 1.0 mi West 9.2 mph - N/A Snow Light Snow
1:15 AM 17.6 °F 8.2 °F 16.2 °F 94% 30.14 in 1.2 mi West 6.9 mph - N/A Snow Light Snow
1:35 AM 16.7 °F 5.3 °F 13.5 °F 87% 30.16 in 2.5 mi West 9.2 mph - N/A Snow Light Snow
1:55 AM 15.6 °F 7.0 °F 12.2 °F 86% 30.16 in 1.0 mi West 5.8 mph - N/A Snow Light Snow
2:15 AM 15.1 °F 5.2 °F 12.0 °F 88% 30.17 in 1.0 mi West 6.9 mph - N/A Snow Light Snow
2:35 AM 14.7 °F 5.9 °F 11.5 °F 87% 30.17 in 1.0 mi WSW 5.8 mph - N/A Snow Light Snow
2:55 AM 14.0 °F 5.1 °F 10.8 °F 87% 30.18 in 1.2 mi West 5.8 mph - N/A Snow Light Snow
3:15 AM 13.1 °F 4.0 °F 9.7 °F 86% 30.19 in 1.2 mi WSW 5.8 mph - N/A Snow Light Snow
3:35 AM 12.2 °F 2.9 °F 8.8 °F 86% 30.19 in 1.0 mi WSW 5.8 mph - N/A Snow Light Snow
3:55 AM 11.8 °F 0.3 °F 8.4 °F 86% 30.19 in 1.0 mi West 8.1 mph - N/A Snow Light Snow
4:15 AM 11.1 °F 0.4 °F 7.2 °F 84% 30.20 in 1.2 mi West 6.9 mph - N/A Snow Light Snow
4:35 AM 10.4 °F -0.4 °F 5.9 °F 82% 30.21 in 1.2 mi West 6.9 mph - N/A Snow Light Snow
4:55 AM 9.5 °F -2.6 °F 4.6 °F 81% 30.21 in 2.0 mi West 8.1 mph 16.1 mph N/A Snow Light Snow
5:15 AM 8.6 °F -4.7 °F 4.1 °F 82% 30.22 in 1.5 mi West 9.2 mph - N/A Snow Light Snow
5:35 AM 8.1 °F -4.3 °F 3.0 °F 80% 30.23 in 1.8 mi WSW 8.1 mph - N/A Snow Light Snow
5:55 AM 7.7 °F -5.8 °F 2.8 °F 81% 30.23 in 2.0 mi West 9.2 mph - N/A Snow Light Snow
6:15 AM 7.3 °F -2.8 °F 3.0 °F 82% 30.24 in 1.8 mi WSW 5.8 mph - N/A Snow Light Snow
6:35 AM 6.8 °F -2.0 °F 2.3 °F 82% 30.24 in 1.2 mi WSW 4.6 mph - N/A Snow Light Snow
6:55 AM 6.8 °F -0.1 °F 2.3 °F 82% 30.25 in 1.5 mi WSW 3.5 mph - N/A Snow Light Snow
7:15 AM 6.6 °F -3.7 °F 1.8 °F 80% 30.26 in 1.5 mi West 5.8 mph - N/A Snow Light Snow
7:35 AM 6.3 °F -6.5 °F 1.0 °F 79% 30.26 in 1.2 mi West 8.1 mph - N/A Snow Light Snow
7:55 AM 6.1 °F -6.8 °F 1.0 °F 80% 30.28 in 1.5 mi West 8.1 mph - N/A Snow Light Snow
8:15 AM 5.9 °F -7.0 °F 1.0 °F 80% 30.28 in 1.2 mi West 8.1 mph - N/A Snow Light Snow
8:35 AM 5.7 °F -7.2 °F -0.2 °F 77% 30.29 in 2.5 mi West 8.1 mph - N/A Snow Light Snow
8:55 AM 5.9 °F -5.8 °F -0.0 °F 77% 30.30 in 2.5 mi West 6.9 mph - N/A Snow Light Snow
9:15 AM 5.5 °F -7.4 °F -0.4 °F 77% 30.30 in 2.5 mi West 8.1 mph - N/A Snow Light Snow
9:35 AM 5.7 °F -7.2 °F -0.2 °F 77% 30.31 in 2.0 mi West 8.1 mph - N/A Snow Light Snow
9:55 AM 5.7 °F -4.8 °F -0.2 °F 77% 30.32 in 2.0 mi West 5.8 mph - N/A Snow Light Snow
10:15 AM 6.3 °F -7.5 °F -0.4 °F 74% 30.32 in 3.0 mi West 9.2 mph - N/A Snow Light Snow
10:35 AM 6.6 °F -6.1 °F -0.4 °F 73% 30.32 in 3.0 mi West 8.1 mph - N/A Snow Light Snow
10:55 AM 6.3 °F -7.5 °F -1.5 °F 71% 30.33 in 3.0 mi WNW 9.2 mph - N/A Snow Light Snow
11:15 AM 6.1 °F -5.6 °F -1.8 °F 70% 30.33 in 4.0 mi WNW 6.9 mph - N/A Snow Light Snow
11:35 AM 6.3 °F -6.5 °F -1.8 °F 69% 30.32 in 3.0 mi West 8.1 mph - N/A Snow Light Snow
11:55 AM 5.9 °F -5.8 °F -2.2 °F 69% 30.32 in 4.0 mi West 6.9 mph - N/A Snow Light Snow
12:15 PM 6.3 °F -6.5 °F -2.2 °F 68% 30.32 in 7.0 mi West 8.1 mph - N/A   Overcast
12:35 PM 6.3 °F -6.5 °F -2.0 °F 69% 30.32 in 7.0 mi West 8.1 mph - N/A Snow Light Snow
12:55 PM 6.3 °F -5.4 °F -2.2 °F 68% 30.32 in 7.0 mi West 6.9 mph - N/A   Overcast
1:15 PM 6.3 °F -7.5 °F -2.0 °F 69% 30.32 in 7.0 mi West 9.2 mph - N/A   Overcast
1:35 PM 5.9 °F -8.0 °F -1.8 °F 70% 30.33 in 7.0 mi West 9.2 mph - N/A   Overcast
1:55 PM 5.9 °F -7.0 °F -1.7 °F 71% 30.33 in 5.0 mi West 8.1 mph - N/A Snow Light Snow
2:15 PM 5.4 °F -7.6 °F -2.0 °F 72% 30.33 in 4.0 mi West 8.1 mph - N/A Snow Light Snow
2:35 PM 5.2 °F -9.8 °F -2.2 °F 72% 30.34 in 4.0 mi West 10.4 mph - N/A Snow Light Snow
2:55 PM 5.0 °F -8.1 °F -2.0 °F 73% 30.34 in 3.0 mi West 8.1 mph - N/A Snow Light Snow
3:15 PM 4.6 °F -7.4 °F -2.4 °F 73% 30.35 in 3.0 mi West 6.9 mph - N/A   Haze
3:35 PM 4.6 °F -9.5 °F -2.2 °F 73% 30.36 in 4.0 mi West 9.2 mph - N/A Snow Light Snow
3:55 PM 4.1 °F -8.0 °F -3.1 °F 72% 30.37 in 7.0 mi West 6.9 mph - N/A   Overcast
4:15 PM 3.2 °F -9.1 °F -3.3 °F 74% 30.37 in 4.0 mi West 6.9 mph - N/A Snow Light Snow
4:35 PM 2.7 °F -8.4 °F -3.8 °F 74% 30.38 in 4.0 mi West 5.8 mph - N/A Snow Light Snow
4:55 PM 2.3 °F -7.2 °F -3.6 °F 76% 30.38 in 10.0 mi West 4.6 mph - N/A Snow Light Snow
5:15 PM 2.3 °F -8.8 °F -3.5 °F 77% 30.38 in 4.0 mi West 5.8 mph - N/A Snow Light Snow
5:35 PM 2.3 °F -5.2 °F -4.0 °F 75% 30.39 in 2.5 mi WSW 3.5 mph - N/A Snow Light Snow
5:55 PM 1.8 °F -7.8 °F -3.6 °F 78% 30.40 in 2.0 mi WSW 4.6 mph - N/A Snow Light Snow
6:15 PM 1.2 °F -6.4 °F -4.0 °F 79% 30.40 in 3.0 mi WSW 3.5 mph - N/A Snow Light Snow
6:35 PM 1.4 °F -6.2 °F -4.0 °F 78% 30.41 in 4.0 mi WSW 3.5 mph - N/A Snow Light Snow
6:55 PM 1.4 °F -6.2 °F -4.0 °F 78% 30.41 in 4.0 mi WSW 3.5 mph - N/A Snow Light Snow
7:15 PM 1.4 °F -6.2 °F -4.0 °F 78% 30.42 in 2.5 mi WSW 3.5 mph - N/A Snow Light Snow
7:35 PM 1.4 °F -6.2 °F -4.0 °F 78% 30.43 in 2.5 mi West 3.5 mph - N/A Snow Light Snow
7:55 PM 1.2 °F -8.5 °F -4.0 °F 79% 30.43 in 1.0 mi West 4.6 mph - N/A Snow Light Snow
8:15 PM 0.1 °F -7.7 °F -4.5 °F 81% 30.43 in 1.0 mi WSW 3.5 mph - N/A Snow Light Snow
8:35 PM -2.0 °F -10.1 °F -6.2 °F 83% 30.43 in 3.0 mi WSW 3.5 mph - N/A Snow Light Snow
8:55 PM -2.9 °F -11.2 °F -6.7 °F 84% 30.43 in 7.0 mi West 3.5 mph - N/A Snow Light Snow
9:15 PM -5.1 °F - -9.6 °F 81% 30.43 in 7.0 mi Calm Calm - N/A Snow Light Snow
9:35 PM -7.4 °F - -11.2 °F 84% 30.43 in 4.0 mi Calm Calm - N/A Snow Light Snow
9:55 PM -7.2 °F - -11.4 °F 82% 30.43 in 4.0 mi Calm Calm - N/A Snow Light Snow
10:15 PM -9.6 °F -18.8 °F -13.5 °F 83% 30.43 in 7.0 mi WSW 3.5 mph - N/A Snow Light Snow
10:35 PM -9.9 °F - -15.0 °F 78% 30.44 in 4.0 mi Calm Calm - N/A Snow Light Snow
10:55 PM -12.3 °F - -17.1 °F 79% 30.44 in 7.0 mi Calm Calm - N/A Snow Light Snow
11:15 PM -12.8 °F - -17.3 °F 80% 30.43 in 10.0 mi Calm Calm - N/A   Clear
11:35 PM -13.9 °F -23.7 °F -19.5 °F 76% 30.44 in 10.0 mi SSW 3.5 mph - N/A   Clear
11:55 PM -14.6 °F - -19.5 °F 79% 30.44 in 10.0 mi Calm Calm - N/A   Clear